Location: Casalecchio di Reno
(44.4760°N, 11.2757°E)
Time: 21:55:48
(UTC+02:00)

QB50P2 - Pass Details

Date: 19 June 2024
Orbit: 561 x 578 km, 98.0° (Epoch: 17 July)

Event Time Altitude Azimuth Distance (km) Brightness Sun altitude
Rises 03:46:56 0° 17° (NNE) 2,771 ? -13.9°
Reaches altitude 10° 03:49:07 10° 21° (NNE) 1,867 ? -13.6°
Maximum altitude 03:53:06 58° 101° (E) 662 ? -13.2°
Enters shadow 03:56:30 14° 179° (S) 1,628 ? -12.9°
